Regional Weather Roundup
Issued by NWS

Home | Current Version | Previous Version | Graphics & Text | Print | Product List | Glossary On
Versions: 1 2 3 4 5 6 7 8 9 10 11 12 13 14 15 16 17 18 19 20 21 22 23 24 25 26 27 28 29 30 31 32 33 34 35 36 37 38 39 40 41 42 43 44 45 46 47 48 49 50
000
ASUS45 KSLC 181310
RWRUT

UTAH REGIONAL WEATHER ROUNDUP
NATIONAL WEATHER SERVICE SALT LAKE CITY UT
700 AM MDT FRI AUG 18 2017

UTZ001>011-023>025-181400-

NORTHERN UTAH

CITY           SKY/WX    TMP DP  RH WIND       PRES   REMARKS
BRIGHAM CITY   CLEAR     56  43  62 CALM      30.16R
HILL AFB       CLEAR     61  35  37 E18       30.17R
LOGAN          CLEAR     52  44  74 CALM      30.18R
OGDEN          CLEAR     61  37  41 S10       30.14R
SALT LAKE CITY CLEAR     66  46  48 SE9       30.13R
TOOELE VALLEY  CLEAR     61  37  41 S9        30.15R
WENDOVER       CLEAR     63  39  41 N7        30.15R
HEBER CITY     CLEAR     45  37  76 CALM      30.27R
WEST JORDAN    CLEAR     64  45  51 S8        30.17R

$$

UTZ011>015-024>027-181400-

CENTRAL/NORTHEAST UTAH

CITY           SKY/WX    TMP DP  RH WIND       PRES   REMARKS
PROVO AIRPORT  CLEAR     57  43  58 CALM      30.18R
MOAB/CANYONLAN CLEAR     60  33  36 SW6       30.13R
DELTA          PTCLDY    55  34  44 E7        30.17R
PRICE          CLEAR     57  35  43 NE6       30.24R
ROOSEVELT      CLEAR     50  43  76 SW6       30.24R
VERNAL         CLEAR     55  44  66 SW5       30.23R

$$

UTZ013>016-019>022-027-181400-

SOUTHERN UTAH

CITY           SKY/WX    TMP DP  RH WIND       PRES   REMARKS
BRYCE CANYON   CLEAR     44  37  76 W6        30.40R
CEDAR CITY     PTCLDY    59  41  51 CALM      30.23R
MILFORD        CLEAR     57  38  48 S7        30.18R
ST GEORGE      SUNNY     71  45  39 CALM      30.06R
HANKSVILLE     CLEAR     55  28  35 CALM      30.16R
BLANDING       PTCLDY    64  30  27 CALM      30.31R

$$

REGIONAL REPORTS     COLORADO/ARIZONA

CITY           SKY/WX    TMP DP  RH WIND       PRES   REMARKS
CRAIG, CO      CLEAR     41  36  82 CALM      30.32R
GRAND JUNCTION CLEAR     60  39  45 SE9       30.19R
RIFLE, CO      CLEAR     52  38  58 SE6       30.27R
MONTROSE, CO   CLEAR     53  39  59 S7        30.28R
CORTEZ, CO     CLEAR     45  36  70 CALM      30.26R
COLORADO CITY    N/A     54  46  76 E6        30.22R
PAGE, AZ       CLEAR     73  37  27 CALM      30.13R
GRAND CANYON   CLEAR     42  34  73 CALM      30.33R
KINGMAN, AZ    CLEAR     63  35  35 SE3       30.09R
FLAGSTAFF, AZ  CLEAR     48  37  65 CALM      30.34S

$$

REGIONAL REPORTS    NEVADA/IDAHO/WYOMING

CITY           SKY/WX    TMP DP  RH WIND       PRES   REMARKS
LAS VEGAS, NV  PTCLDY    81  43  26 CALM      29.98R
ELY, NY        CLOUDY    48  34  58 S10       30.30R
ELKO, NV       CLEAR     52  33  48 NE5       30.23R
POCATELLO, ID  CLOUDY    45  35  68 CALM      30.17R
BURLEY, ID     CLEAR     52  40  63 SW3       30.14R
FORT BRIDGER,    N/A     58  31  35 W5        30.35S
EVANSTON, WY   CLOUDY    51  33  50 S8        30.33R
ROCK SPRINGS,  CLEAR     57  32  38 CALM      30.32R
KEMMERER, WY     N/A     45  32  61 N8        30.35R

$$



USA.gov is the U.S. government's official web portal to all federal, state and local government web resources and services.